SV2RCS-13 Weather Reports


time (UTC)temp
C
wind
direction
speed
KPH
gust
KPH
rain 1hr
cm
rain 24hr
cm
rain mn
cm
humidity
%
barometer
mb
20260508025703 13 0.0 0.0 0.00 0.00 0.00 65 1016.0
20260508024703 13 0.0 0.0 0.00 0.00 0.00 64 1016.2
20260508023703 13 0.0 0.0 0.00 0.00 0.00 64 1016.0
20260508022703 13 0.0 0.0 0.00 0.00 0.00 64 1016.2
20260508021702 13 0.0 0.0 0.00 0.00 0.00 65 1016.3
20260508020703 13 0.0 0.0 0.00 0.00 0.00 64 1016.2
20260508015708 13 0.0 0.0 0.00 0.00 0.00 64 1016.1
20260508014705 13 0.0 0.0 0.00 0.00 0.00 64 1016.1
20260508013703 13 0.0 0.0 0.00 0.00 0.00 65 1016.1
20260508012706 13 0.0 0.0 0.00 0.00 0.00 64 1016.1
20260508011702 14 0.0 0.0 0.00 0.00 0.00 64 1016.1
20260508010706 14 0.0 0.0 0.00 0.00 0.00 64 1016.1
20260508005704 14 0.0 0.0 0.00 0.00 0.00 64 1016.3
20260508004704 14 0.0 0.0 0.00 0.00 0.00 63 1016.3
20260508003703 14 0.0 0.0 0.00 0.00 0.00 63 1016.4
20260508002702 14 0.0 0.0 0.00 0.00 0.00 63 1016.3
20260508001702 14 0.0 0.0 0.00 0.00 0.00 63 1016.6
20260508000703 14 0.0 0.0 0.00 0.00 0.00 63 1016.7
20260507235703 14 0.0 0.0 0.00 0.00 0.00 63 1016.8
20260507234702 13 0.0 0.0 0.00 0.00 0.00 64 1016.9
20260507233702 13 0.0 0.0 0.00 0.00 0.00 63 1017.0
20260507232706 13 0.0 0.0 0.00 0.00 0.00 62 1017.3
20260507231706 13 0.0 0.0 0.00 0.00 0.00 61 1017.4
20260507230702 13 0.0 0.0 0.00 0.00 0.00 61 1017.3
20260507225703 13 0.0 0.0 0.00 0.00 0.00 61 1017.4
20260507224703 13 0.0 0.0 0.00 0.00 0.00 62 1017.5
20260507223702 13 0.0 0.0 0.00 0.00 0.00 62 1017.5
20260507222703 13 0.0 0.0 0.00 0.00 0.00 62 1017.7
20260507221702 13 0.0 0.0 0.00 0.00 0.00 62 1017.6
20260507220702 13 0.0 0.0 0.00 0.00 0.00 61 1017.8
20260507215702 13 0.0 0.0 0.00 0.00 0.00 61 1017.7
20260507214711 13 0.0 0.0 0.00 0.00 0.00 61 1017.8
20260507213703 13 0.0 0.0 0.00 0.00 0.00 60 1017.8
20260507212703 14 0.0 0.0 0.00 0.00 0.00 61 1017.7
20260507211703 14 0.0 0.0 0.00 0.00 0.00 60 1017.8
20260507210703 14 0.0 0.0 0.00 0.00 0.00 60 1017.9
20260507205703 14 0.0 0.0 0.00 0.00 0.00 59 1017.9
20260507204703 14 0.0 0.0 0.00 0.00 0.00 59 1017.7
20260507203703 14 0.0 0.0 0.00 0.00 0.00 59 1017.8
20260507202703 14 0.0 0.0 0.00 0.00 0.00 59 1017.9
20260507201703 14 0.0 0.0 0.00 0.00 0.00 59 1017.9
20260507200703 14 0.0 0.0 0.00 0.00 0.00 59 1017.8
20260507195702 14 0.0 0.0 0.00 0.00 0.00 57 1017.9
20260507194702 14 0.0 0.0 0.00 0.00 0.00 57 1017.7
20260507193703 15 0.0 0.0 0.00 0.00 0.00 56 1017.7
20260507192702 15 0.0 0.0 0.00 0.00 0.00 57 1017.5
20260507191703 15 0.0 0.0 0.00 0.00 0.00 59 1017.5
20260507190703 15 0.0 0.0 0.00 0.00 0.00 59 1017.4
20260507185704 15 0.0 0.0 0.00 0.00 0.00 59 1017.3
20260507184703 15 0.0 0.0 0.00 0.00 0.00 60 1017.2
20260507183703 15 0.0 0.0 0.00 0.00 0.00 60 1017.0
20260507182702 15 0.0 0.0 0.00 0.00 0.00 60 1017.0
20260507181703 15 0.0 0.0 0.00 0.00 0.00 59 1017.0
20260507180703 15 0.0 0.0 0.00 0.00 0.00 59 1017.0
20260507175702 15 0.0 0.0 0.00 0.00 0.00 59 1016.9
20260507174702 16 0.0 0.0 0.00 0.00 0.00 59 1016.6
20260507173703 16 0.0 0.0 0.00 0.00 0.00 59 1016.6
20260507172703 16 0.0 0.0 0.00 0.00 0.00 60 1016.3
20260507171702 16 0.0 0.0 0.00 0.00 0.00 60 1016.3
20260507170703 16 0.0 0.0 0.00 0.00 0.00 60 1016.3
20260507165703 17 0.0 0.0 0.00 0.00 0.00 58 1016.2
20260507164702 17 0.0 0.0 0.00 0.00 0.00 55 1016.2
20260507163703 17 0.0 0.0 0.00 0.00 0.00 53 1016.0
20260507162703 17 0.0 0.0 0.00 0.00 0.00 53 1016.0
20260507161703 17 0.0 0.0 0.00 0.00 0.00 55 1016.0
20260507160703 17 0.0 0.0 0.00 0.00 0.00 56 1016.2
20260507155703 17 0.0 0.0 0.00 0.00 0.00 57 1016.1
20260507154703 17 0.0 0.0 0.00 0.00 0.00 57 1016.0
20260507153702 17 0.0 0.0 0.00 0.00 0.00 58 1016.2
20260507152702 17 0.0 0.0 0.00 0.00 0.00 55 1016.2
20260507151703 17 0.0 0.0 0.00 0.00 0.00 58 1016.2
20260507150702 17 0.0 0.0 0.00 0.00 0.00 55 1016.5
20260507145702 18 0.0 0.0 0.00 0.00 0.00 54 1016.5
20260507144703 17 0.0 0.0 0.00 0.00 0.00 54 1016.5
20260507143703 17 0.0 0.0 0.00 0.00 0.00 54 1016.3
20260507142705 18 0.0 0.0 0.00 0.00 0.00 52 1016.4
20260507141702 17 0.0 0.0 0.00 0.00 0.00 52 1016.4
20260507140702 18 0.0 0.0 0.00 0.00 0.00 53 1016.2
20260507135701 17 0.0 0.0 0.00 0.00 0.00 54 1016.2
20260507134703 17 0.0 0.0 0.00 0.00 0.00 52 1016.3
20260507133702 18 0.0 0.0 0.00 0.00 0.00 47 1016.1
20260507132702 18 0.0 0.0 0.00 0.00 0.00 47 1016.1
20260507131703 18 0.0 0.0 0.00 0.00 0.00 47 1016.1
20260507130703 18 0.0 0.0 0.00 0.00 0.00 45 1016.2
20260507125705 18 0.0 0.0 0.00 0.00 0.00 44 1016.3
20260507124702 18 0.0 0.0 0.00 0.00 0.00 43 1016.3
20260507123702 18 0.0 0.0 0.00 0.00 0.00 41 1016.3
20260507122702 18 0.0 0.0 0.00 0.00 0.00 40 1016.5
20260507121702 18 0.0 0.0 0.00 0.00 0.00 44 1016.8
20260507120702 18 0.0 0.0 0.00 0.00 0.00 46 1017.0
20260507115702 18 0.0 0.0 0.00 0.00 0.00 49 1017.0
20260507114703 18 0.0 0.0 0.00 0.00 0.00 51 1017.1
20260507113703 17 0.0 0.0 0.00 0.00 0.00 55 1017.1
20260507112702 17 0.0 0.0 0.00 0.00 0.00 55 1017.5
20260507111703 17 0.0 0.0 0.00 0.00 0.00 58 1017.5
20260507110702 17 0.0 0.0 0.00 0.00 0.00 61 1017.3
20260507105703 17 0.0 0.0 0.00 0.00 0.00 57 1017.9
20260507104702 17 0.0 0.0 0.00 0.00 0.00 53 1017.9
20260507103702 18 0.0 0.0 0.00 0.00 0.00 49 1017.7
20260507102702 18 0.0 0.0 0.00 0.00 0.00 48 1017.7
20260507101703 17 0.0 0.0 0.00 0.00 0.00 49 1017.8
20260507100702 17 0.0 0.0 0.00 0.00 0.00 50 1017.8
20260507095702 17 0.0 0.0 0.00 0.00 0.00 51 1017.8
20260507094703 17 0.0 0.0 0.00 0.00 0.00 54 1017.8
20260507093702 17 0.0 0.0 0.00 0.00 0.00 54 1017.6
20260507092701 17 0.0 0.0 0.00 0.00 0.00 53 1017.9
20260507091703 17 0.0 0.0 0.00 0.00 0.00 52 1017.8
20260507090702 17 0.0 0.0 0.00 0.00 0.00 51 1017.8
20260507085702 17 0.0 0.0 0.00 0.00 0.00 49 1017.7
20260507084703 17 0.0 0.0 0.00 0.00 0.00 46 1017.4
20260507083704 17 0.0 0.0 0.00 0.00 0.00 45 1017.1
20260507082702 18 0.0 0.0 0.00 0.00 0.00 44 1017.0
20260507081702 18 0.0 0.0 0.00 0.00 0.00 43 1016.9
20260507080702 18 0.0 0.0 0.00 0.00 0.00 40 1016.8
20260507075702 18 0.0 0.0 0.00 0.00 0.00 39 1016.5
20260507074702 18 0.0 0.0 0.00 0.00 0.00 39 1016.4
20260507073702 18 0.0 0.0 0.00 0.00 0.00 38 1016.2
20260507072702 18 0.0 0.0 0.00 0.00 0.00 38 1015.9
20260507071702 18 0.0 0.0 0.00 0.00 0.00 39 1015.9
20260507070702 17 0.0 0.0 0.00 0.00 0.00 39 1016.0
20260507065702 17 0.0 0.0 0.00 0.00 0.00 39 1016.2
20260507064702 17 0.0 0.0 0.00 0.00 0.00 40 1016.1
20260507063702 17 0.0 0.0 0.00 0.00 0.00 41 1016.1
20260507062707 17 0.0 0.0 0.00 0.00 0.00 40 1016.0
20260507061702 17 0.0 0.0 0.00 0.00 0.00 43 1016.0
20260507060702 17 0.0 0.0 0.00 0.00 0.00 44 1016.2
20260507055702 17 0.0 0.0 0.00 0.00 0.00 43 1015.9
20260507054702 17 0.0 0.0 0.00 0.00 0.00 44 1015.8
20260507053703 17 0.0 0.0 0.00 0.00 0.00 48 1015.7
20260507052702 16 0.0 0.0 0.00 0.00 0.00 47 1015.6
20260507051706 16 0.0 0.0 0.00 0.00 0.00 49 1015.6
20260507050702 16 0.0 0.0 0.00 0.00 0.00 49 1015.5
20260507045702 16 0.0 0.0 0.00 0.00 0.00 46 1015.3
20260507044702 16 0.0 0.0 0.00 0.00 0.00 47 1015.4
20260507043702 16 0.0 0.0 0.00 0.00 0.00 46 1015.1
20260507042702 16 0.0 0.0 0.00 0.00 0.00 45 1015.3
20260507041702 16 0.0 0.0 0.00 0.00 0.00 44 1015.4
20260507040657 15 0.0 0.0 0.00 0.00 0.00 47 1015.6
20260507035701 15 0.0 0.0 0.00 0.00 0.00 46 1015.5
20260507034702 15 0.0 0.0 0.00 0.00 0.00 46 1015.4
20260507033702 15 0.0 0.0 0.00 0.00 0.00 45 1015.5
20260507032702 14 0.0 0.0 0.00 0.00 0.00 45 1015.5
20260507031702 15 0.0 0.0 0.00 0.00 0.00 44 1015.3
20260507030703 15 0.0 0.0 0.00 0.00 0.00 43 1015.4